Fremont, NE

1:54 PM CDT on June 22, 2017 (GMT -0500)
Fremont Municipal

Weather History for KFET - November, 2014

Change the Weather History Date:

Tuesday, November 18, 2014

  Actual Average Record
Temperature  
Mean Temperature 17 °F -  
Max Temperature 31 °F 48 °F 71 °F (1976)
Min Temperature 3 °F 28 °F 3 °F (2014)
Degree Days  
Heating Degree Days 48    
Moisture  
Dew Point 10 °F    
Average Humidity 67    
Maximum Humidity 80    
Minimum Humidity 54    
Precipitation  
Precipitation 0.00 in - - ()
Sea Level Pressure  
Sea Level Pressure 30.07 in    
Wind  
Wind Speed 8 mph (SW)    
Max Wind Speed 14 mph    
Max Gust Speed -    
Visibility 10 miles    
Events      
Averages and records for this station are not official NWS values.
T = Trace of Precipitation, MM = Missing Value Source: NWS Daily Summary

Daily Weather History Graph

Daily Weather History Graph

Search for Another Location

Airport or City:

Trip Planner

Search our weather history database for the weather conditions in past years. The results will help you decide how hot, cold, wet, or windy it might be!

Date:

Astronomy

Nov. 18, 2014 Rise Set
Actual Time 7:18 AM CST 5:03 PM CST
Civil Twilight 6:48 AM CST 5:33 PM CST
Nautical Twilight 6:14 AM CST 6:07 PM CST
Astronomical Twilight 5:41 AM CST 6:40 PM CST
Moon 3:14 AM CST (11/18) 3:01 PM CST (11/18)
Length of Visible Light 10h 45m
Length of Day
9h 45m
Waning Crescent, 15% of the Moon is Illuminated
Nov 18
Waning Crescent
Nov 22
New
Nov 29
First Quarter
Dec 6
Full
Dec 14
Last Quarter

Hourly Weather History & Observations

Time (CST) Temp. Windchill Dew Point Humidity Pressure Visibility Wind Dir Wind Speed Gust Speed Precip Events Conditions
12:15 AM 7.5 °F -6.0 °F 0.7 °F 74% 30.23 in 10.0 mi West 9.2 mph - N/A   Clear
12:35 AM 6.8 °F -6.9 °F -0.2 °F 73% 30.22 in 10.0 mi West 9.2 mph - N/A   Clear
12:55 AM 3.4 °F -10.0 °F -2.6 °F 76% 30.22 in 10.0 mi WNW 8.1 mph - N/A   Clear
1:15 AM 5.0 °F -8.1 °F -0.6 °F 78% 30.22 in 10.0 mi West 8.1 mph - N/A   Clear
1:35 AM 5.4 °F -8.6 °F -0.4 °F 77% 30.21 in 10.0 mi West 9.2 mph - N/A   Clear
1:55 AM 7.3 °F -7.9 °F 1.0 °F 75% 30.21 in 10.0 mi West 11.5 mph - N/A   Clear
2:15 AM 7.2 °F -6.4 °F 0.7 °F 75% 30.21 in 10.0 mi West 9.2 mph - N/A   Clear
2:35 AM 7.0 °F -7.5 °F 1.2 °F 77% 30.21 in 10.0 mi West 10.4 mph - N/A   Clear
2:55 AM 7.3 °F -5.2 °F 1.2 °F 76% 30.21 in 10.0 mi West 8.1 mph - N/A   Clear
3:15 AM 3.9 °F -9.4 °F -1.5 °F 78% 30.21 in 10.0 mi WNW 8.1 mph - N/A   Clear
3:35 AM 4.6 °F -8.5 °F -0.6 °F 79% 30.21 in 10.0 mi West 8.1 mph - N/A   Scattered Clouds
3:55 AM 8.1 °F -3.2 °F 2.8 °F 79% 30.21 in 10.0 mi West 6.9 mph - N/A   Overcast
4:15 AM 8.6 °F -2.6 °F 3.2 °F 79% 30.20 in 10.0 mi West 6.9 mph - N/A   Overcast
4:35 AM 9.3 °F -0.5 °F 4.1 °F 79% 30.20 in 10.0 mi WNW 5.8 mph - N/A   Overcast
4:55 AM 10.8 °F 0.0 °F 5.7 °F 80% 30.19 in 10.0 mi West 6.9 mph - N/A   Overcast
5:15 AM 14.9 °F 3.1 °F 7.7 °F 73% 30.19 in 10.0 mi West 9.2 mph - N/A   Overcast
5:35 AM 17.6 °F 5.0 °F 7.7 °F 65% 30.19 in 10.0 mi West 11.5 mph - N/A   Overcast
5:55 AM 18.0 °F 4.2 °F 7.5 °F 64% 30.19 in 10.0 mi West 13.8 mph - N/A   Overcast
6:15 AM 17.6 °F 3.7 °F 7.0 °F 63% 30.19 in 10.0 mi West 13.8 mph - N/A   Overcast
6:35 AM 17.2 °F 5.2 °F 7.0 °F 64% 30.19 in 10.0 mi West 10.4 mph - N/A   Mostly Cloudy
6:55 AM 17.4 °F 7.1 °F 7.9 °F 66% 30.19 in 10.0 mi WSW 8.1 mph - N/A   Mostly Cloudy
7:15 AM 15.1 °F 4.2 °F 7.2 °F 71% 30.19 in 10.0 mi SW 8.1 mph - N/A   Scattered Clouds
7:35 AM 12.7 °F 1.4 °F 5.9 °F 74% 30.20 in 10.0 mi WSW 8.1 mph - N/A   Clear
7:55 AM 12.2 °F 1.7 °F 5.5 °F 75% 30.20 in 10.0 mi WSW 6.9 mph - N/A   Clear
8:15 AM 12.0 °F 0.5 °F 4.8 °F 73% 30.20 in 10.0 mi SW 8.1 mph - N/A   Clear
8:35 AM 12.9 °F 3.8 °F 5.2 °F 71% 30.20 in 10.0 mi WSW 5.8 mph - N/A   Clear
8:55 AM 13.8 °F 4.9 °F 5.7 °F 70% 30.20 in 10.0 mi WSW 5.8 mph - N/A   Clear
9:15 AM 14.9 °F 7.5 °F 6.1 °F 68% 30.20 in 10.0 mi WSW 4.6 mph - N/A   Clear
9:35 AM 16.2 °F 10.6 °F 6.8 °F 67% 30.19 in 10.0 mi WNW 3.5 mph - N/A   Clear
9:55 AM 17.2 °F - 7.3 °F 65% 30.19 in 10.0 mi Calm Calm - N/A   Clear
10:15 AM 17.6 °F 9.3 °F 7.2 °F 64% 30.18 in 10.0 mi SW 5.8 mph - N/A   Clear
10:35 AM 17.6 °F 10.7 °F 7.0 °F 63% 30.18 in 10.0 mi SSW 4.6 mph - N/A   Clear
10:55 AM 19.0 °F 13.9 °F 7.5 °F 61% 30.17 in 10.0 mi WSW 3.5 mph - N/A   Clear
11:15 AM 21.2 °F - 8.4 °F 58% 30.16 in 10.0 mi Calm Calm - N/A   Clear
11:35 AM 22.1 °F 15.9 °F 9.7 °F 59% 30.14 in 10.0 mi SW 4.6 mph - N/A   Clear
11:55 AM 22.1 °F 12.0 °F 9.0 °F 57% 30.13 in 10.0 mi SSW 9.2 mph - N/A   Clear
12:15 PM 22.5 °F 14.1 °F 9.0 °F 56% 30.12 in 10.0 mi South 6.9 mph - N/A   Clear
12:35 PM 22.6 °F 15.3 °F 9.1 °F 56% 30.11 in 10.0 mi SSW 5.8 mph - N/A   Clear
12:55 PM 23.4 °F 13.5 °F 9.3 °F 55% 30.10 in 10.0 mi South 9.2 mph - N/A   Clear
1:15 PM 24.3 °F 14.6 °F 10.9 °F 57% 30.08 in 10.0 mi SSW 9.2 mph - N/A   Clear
1:35 PM 25.3 °F 16.0 °F 11.5 °F 56% 30.06 in 10.0 mi SSW 9.2 mph - N/A   Clear
1:55 PM 26.2 °F 18.6 °F 12.4 °F 56% 30.05 in 10.0 mi SSW 6.9 mph - N/A   Clear
2:15 PM 26.6 °F 17.5 °F 13.1 °F 57% 30.04 in 10.0 mi SSW 9.2 mph - N/A   Clear
2:35 PM 27.1 °F 19.7 °F 13.1 °F 56% 30.04 in 10.0 mi SSW 6.9 mph - N/A   Clear
2:55 PM 27.3 °F 19.1 °F 12.9 °F 55% 30.03 in 10.0 mi South 8.1 mph - N/A   Clear
3:15 PM 28.0 °F 20.8 °F 13.5 °F 54% 30.01 in 10.0 mi South 6.9 mph - N/A   Clear
3:35 PM 28.2 °F 22.0 °F 13.3 °F 54% 30.00 in 10.0 mi South 5.8 mph - N/A   Clear
3:55 PM 28.0 °F 20.0 °F 14.4 °F 57% 29.99 in 10.0 mi SSE 8.1 mph - N/A   Clear
4:15 PM 27.3 °F 19.9 °F 14.4 °F 58% 29.99 in 10.0 mi South 6.9 mph - N/A   Clear
4:35 PM 26.6 °F 20.0 °F 14.9 °F 61% 29.99 in 10.0 mi South 5.8 mph - N/A   Clear
4:55 PM 27.3 °F 19.9 °F 15.6 °F 61% 29.98 in 10.0 mi South 6.9 mph - N/A   Clear
5:15 PM 27.5 °F 21.1 °F 15.6 °F 61% 29.97 in 10.0 mi South 5.8 mph - N/A   Scattered Clouds
5:35 PM 28.2 °F 20.2 °F 15.6 °F 59% 29.96 in 10.0 mi South 8.1 mph - N/A   Scattered Clouds
5:55 PM 28.0 °F 20.8 °F 15.8 °F 60% 29.93 in 10.0 mi SSE 6.9 mph - N/A   Mostly Cloudy
6:15 PM 27.7 °F 23.8 °F 16.5 °F 63% 29.93 in 10.0 mi SE 3.5 mph - N/A   Overcast
6:35 PM 27.3 °F 23.4 °F 17.4 °F 66% 29.92 in 10.0 mi SE 3.5 mph - N/A   Overcast
6:55 PM 27.5 °F 20.2 °F 18.1 °F 68% 29.90 in 10.0 mi SE 6.9 mph - N/A   Overcast
7:15 PM 28.0 °F 20.8 °F 18.0 °F 66% 29.89 in 10.0 mi SE 6.9 mph - N/A   Mostly Cloudy
7:35 PM 27.5 °F 20.2 °F 18.3 °F 68% 29.88 in 10.0 mi SE 6.9 mph - N/A   Mostly Cloudy
7:55 PM 28.6 °F 22.4 °F 19.0 °F 67% 29.86 in 10.0 mi SE 5.8 mph - N/A   Overcast
8:15 PM 29.1 °F 22.1 °F 19.9 °F 69% 29.86 in 10.0 mi SSE 6.9 mph - N/A   Overcast
8:35 PM 30.0 °F 23.2 °F 19.8 °F 66% 29.84 in 10.0 mi South 6.9 mph - N/A   Overcast
8:55 PM 31.1 °F - 19.8 °F 63% 29.85 in 10.0 mi Calm Calm - N/A   Mostly Cloudy
9:15 PM 30.6 °F 25.8 °F 20.7 °F 67% 29.85 in 10.0 mi SW 4.6 mph - N/A   Overcast
9:35 PM 30.7 °F 26.0 °F 21.2 °F 68% 29.84 in 10.0 mi SW 4.6 mph - N/A   Overcast
9:55 PM 30.4 °F 25.6 °F 21.9 °F 71% 29.85 in 10.0 mi NW 4.6 mph - N/A   Overcast
10:15 PM 28.4 °F 24.6 °F 21.6 °F 76% 29.84 in 10.0 mi West 3.5 mph - N/A   Mostly Cloudy
10:35 PM 27.5 °F 21.1 °F 20.5 °F 75% 29.84 in 10.0 mi West 5.8 mph - N/A   Scattered Clouds
10:55 PM 27.7 °F 19.6 °F 20.5 °F 74% 29.84 in 10.0 mi West 8.1 mph - N/A   Mostly Cloudy
11:15 PM 29.1 °F 20.6 °F 20.8 °F 71% 29.84 in 10.0 mi West 9.2 mph - N/A   Scattered Clouds
11:35 PM 28.0 °F 19.3 °F 21.4 °F 76% 29.84 in 10.0 mi WNW 9.2 mph - N/A   Scattered Clouds
11:55 PM 27.5 °F 18.6 °F 21.4 °F 78% 29.84 in 10.0 mi West 9.2 mph - N/A   Scattered Clouds